User: anonymous   Login
Location: Hope
(40.9110°N, 74.9680°W)
Time: 16:27:49
(UTC-04:00)
Language:

EO-88 - Orbit

View from above orbital plane
View from above orbital plane
View from above satellite
View from above satellite

Ground track
Ground track

The orbit data is extracted from the following two-line orbital elements,

1 42017U 17008BX  21204.17924064  .00003000  00000-0  11120-3 0  9993
2 42017  97.3143 271.1402 0005490 359.7538   0.3698 15.28383723246716
Epoch (UTC): 23 July 2021 04:18:06
Eccentricity: 0.0005490
inclination: 97.3143°
perigee height: 477 km
apogee height: 484 km
right ascension of ascending node: 271.1402°
argument of perigee: 359.7538°
revolutions per day: 15.28383723
mean anomaly at epoch: 0.3698°
orbit number at epoch: 24671

The dashed part of the orbit path shows where the satellite is in the earth's shadow,  

DLR